| time (UTC) | temp F | wind direction | speed knots | gust knots | rain 1hr in | rain 24hr in | rain mn in | humidity % | barometer mb |
| 20260906213416 | 67 | 310 | 1.7 | 2.6 | 0.00 | 0.00 | 0.00 | 73 | 1018.5 |
| 20260906212913 | 67 | 346 | 4.3 | 5.2 | 0.00 | 0.00 | 0.00 | 73 | 1018.4 |
| 20260906212409 | 68 | 345 | 2.6 | 2.6 | 0.00 | 0.00 | 0.00 | 72 | 1018.4 |
| 20260906211909 | 68 | 343 | 3.5 | 3.5 | 0.00 | 0.00 | 0.00 | 71 | 1018.4 |
| 20260906211404 | 68 | 343 | 5.2 | 6.1 | 0.00 | 0.00 | 0.00 | 70 | 1018.4 |
| 20260906210859 | 67 | 344 | 3.5 | 3.5 | 0.00 | 0.00 | 0.00 | 72 | 1018.5 |
| 20260906210355 | 68 | 352 | 2.6 | 3.5 | 0.00 | 0.00 | 0.00 | 72 | 1018.4 |
| 20260906205855 | 68 | 356 | 5.2 | 6.1 | 0.00 | 0.00 | 0.00 | 71 | 1018.5 |
| 20260906205351 | 69 | 354 | 5.2 | 6.1 | 0.00 | 0.00 | 0.00 | 70 | 1018.4 |
| 20260906204847 | 69 | 41 | 0.9 | 0.9 | 0.00 | 0.00 | 0.00 | 72 | 1018.5 |
| 20260906204345 | 68 | 20 | 3.5 | 5.2 | 0.00 | 0.00 | 0.00 | 72 | 1018.5 |
| 20260906203846 | 68 | 357 | 5.2 | 6.1 | 0.00 | 0.00 | 0.00 | 72 | 1018.4 |
| 20260906203341 | 68 | 23 | 5.2 | 6.1 | 0.00 | 0.00 | 0.00 | 71 | 1018.3 |
| 20260906202838 | 69 | 354 | 2.6 | 3.5 | 0.00 | 0.00 | 0.00 | 72 | 1018.3 |
| 20260906202337 | 68 | 12 | 5.2 | 6.1 | 0.00 | 0.00 | 0.00 | 72 | 1018.4 |
| 20260906201837 | 68 | 345 | 3.5 | 5.2 | 0.00 | 0.00 | 0.00 | 71 | 1018.3 |
| 20260906201332 | 68 | 20 | 7.0 | 8.7 | 0.00 | 0.00 | 0.00 | 71 | 1018.3 |
| 20260906200827 | 69 | 25 | 3.5 | 5.2 | 0.00 | 0.00 | 0.00 | 69 | 1018.4 |
| 20260906200323 | 69 | 356 | 6.1 | 7.8 | 0.00 | 0.00 | 0.00 | 69 | 1018.2 |
| 20260906195818 | 69 | 18 | 2.6 | 2.6 | 0.00 | 0.00 | 0.00 | 70 | 1018.4 |
| 20260906195315 | 68 | 355 | 3.5 | 5.2 | 0.00 | 0.00 | 0.00 | 73 | 1018.4 |
| 20260906194810 | 68 | 24 | 3.5 | 5.2 | 0.00 | 0.00 | 0.00 | 72 | 1018.4 |
| 20260906194306 | 68 | 18 | 5.2 | 6.1 | 0.00 | 0.00 | 0.00 | 69 | 1018.5 |
| 20260906193801 | 68 | 12 | 5.2 | 6.1 | 0.00 | 0.00 | 0.00 | 72 | 1018.6 |
| 20260906193255 | 67 | 5 | 4.3 | 5.2 | 0.00 | 0.00 | 0.00 | 76 | 1018.5 |
| 20260906192752 | 67 | 7 | 1.7 | 2.6 | 0.00 | 0.00 | 0.00 | 75 | 1018.5 |
| 20260906192251 | 68 | 344 | 7.0 | 7.8 | 0.00 | 0.00 | 0.00 | 74 | 1018.4 |
| 20260906191750 | 67 | 0 | 7.0 | 8.7 | 0.00 | 0.00 | 0.00 | 75 | 1018.6 |
| 20260906191245 | 68 | 348 | 1.7 | 1.7 | 0.00 | 0.00 | 0.00 | 73 | 1018.5 |
| 20260906190740 | 68 | 355 | 5.2 | 6.1 | 0.00 | 0.00 | 0.00 | 71 | 1018.5 |
| 20260906190240 | 68 | 304 | 1.7 | 1.7 | 0.00 | 0.00 | 0.00 | 70 | 1018.4 |
| 20260906185739 | 68 | 10 | 7.8 | 9.6 | 0.00 | 0.00 | 0.00 | 73 | 1018.5 |
| 20260906185238 | 67 | 16 | 3.5 | 6.1 | 0.00 | 0.00 | 0.00 | 74 | 1018.4 |
| 20260906184733 | 66 | 52 | 5.2 | 7.0 | 0.00 | 0.00 | 0.00 | 76 | 1018.6 |
| 20260906184228 | 68 | 358 | 7.8 | 7.8 | 0.00 | 0.00 | 0.00 | 73 | 1018.6 |
| 20260906183724 | 67 | 26 | 3.5 | 5.2 | 0.00 | 0.00 | 0.00 | 77 | 1018.4 |
| 20260906183220 | 67 | 42 | 2.6 | 3.5 | 0.00 | 0.00 | 0.00 | 77 | 1018.4 |
| 20260906182720 | 68 | 22 | 9.6 | 9.6 | 0.00 | 0.00 | 0.00 | 76 | 1018.5 |
| 20260906182216 | 67 | 3 | 7.8 | 7.8 | 0.00 | 0.00 | 0.00 | 75 | 1018.6 |
| 20260906181711 | 67 | 6 | 8.7 | 9.6 | 0.00 | 0.00 | 0.00 | 78 | 1018.6 |
| 20260906181208 | 67 | 298 | 1.7 | 1.7 | 0.00 | 0.00 | 0.00 | 78 | 1018.4 |
| 20260906180707 | 68 | 30 | 3.5 | 3.5 | 0.00 | 0.00 | 0.00 | 75 | 1018.7 |
| 20260906180202 | 67 | 355 | 9.6 | 11.3 | 0.00 | 0.00 | 0.00 | 76 | 1018.5 |
| 20260906175700 | 66 | 14 | 5.2 | 8.7 | 0.00 | 0.00 | 0.00 | 77 | 1018.6 |
| 20260906175156 | 67 | 22 | 8.7 | 9.6 | 0.00 | 0.00 | 0.00 | 76 | 1018.6 |
| 20260906174654 | 66 | 8 | 7.8 | 8.7 | 0.00 | 0.00 | 0.00 | 77 | 1018.6 |
| 20260906174149 | 67 | 11 | 9.6 | 11.3 | 0.00 | 0.00 | 0.00 | 78 | 1018.7 |
| 20260906173644 | 68 | 350 | 3.5 | 5.2 | 0.00 | 0.00 | 0.00 | 80 | 1018.5 |
| 20260906173140 | 68 | 310 | 1.7 | 2.6 | 0.00 | 0.00 | 0.00 | 79 | 1018.7 |
| 20260906172639 | 67 | 11 | 7.8 | 7.8 | 0.00 | 0.00 | 0.00 | 78 | 1018.7 |
| 20260906172135 | 67 | 8 | 7.8 | 7.8 | 0.00 | 0.00 | 0.00 | 79 | 1018.7 |
| 20260906171634 | 67 | 6 | 7.8 | 8.7 | 0.00 | 0.00 | 0.00 | 81 | 1018.7 |
| 20260906171130 | 66 | 14 | 9.6 | 9.6 | 0.00 | 0.00 | 0.00 | 79 | 1018.9 |
| 20260906170626 | 68 | 5 | 5.2 | 6.1 | 0.00 | 0.00 | 0.00 | 75 | 1018.6 |
| 20260906170125 | 66 | 25 | 5.2 | 5.2 | 0.00 | 0.00 | 0.00 | 81 | 1018.9 |
| 20260906165621 | 66 | 14 | 6.1 | 6.1 | 0.00 | 0.00 | 0.00 | 81 | 1018.6 |
| 20260906165117 | 68 | 36 | 2.6 | 2.6 | 0.00 | 0.00 | 0.00 | 78 | 1018.6 |
| 20260906164615 | 67 | 9 | 1.7 | 1.7 | 0.00 | 0.00 | 0.00 | 79 | 1018.6 |
| 20260906164111 | 68 | 61 | 4.3 | 5.2 | 0.00 | 0.00 | 0.00 | 77 | 1018.5 |
| 20260906163607 | 67 | 28 | 1.7 | 5.2 | 0.00 | 0.00 | 0.00 | 78 | 1018.7 |
| 20260906163102 | 69 | 5 | 5.2 | 7.0 | 0.00 | 0.00 | 0.00 | 78 | 1018.5 |
| 20260906162600 | 69 | 7 | 6.1 | 7.8 | 0.00 | 0.00 | 0.00 | 77 | 1018.3 |
| 20260906162055 | 68 | 19 | 10.4 | 13.0 | 0.00 | 0.00 | 0.00 | 76 | 1018.4 |
| 20260906161549 | 68 | 23 | 6.1 | 7.8 | 0.00 | 0.00 | 0.00 | 77 | 1018.5 |
| 20260906161048 | 69 | 72 | 0.9 | 1.7 | 0.00 | 0.00 | 0.00 | 75 | 1018.5 |
| 20260906160547 | 68 | 99 | 5.2 | 6.1 | 0.00 | 0.00 | 0.00 | 78 | 1018.5 |
| 20260906160046 | 68 | 354 | 0.9 | 1.7 | 0.00 | 0.00 | 0.00 | 75 | 1018.4 |
| 20260906155543 | 68 | 128 | 1.7 | 2.6 | 0.00 | 0.00 | 0.00 | 77 | 1018.4 |
| 20260906155040 | 67 | 83 | 3.5 | 5.2 | 0.00 | 0.00 | 0.00 | 77 | 1018.5 |
| 20260906154535 | 67 | 9 | 3.5 | 5.2 | 0.00 | 0.00 | 0.00 | 79 | 1018.4 |
| 20260906154034 | 67 | 352 | 7.8 | 7.8 | 0.00 | 0.00 | 0.00 | 79 | 1018.3 |
| 20260906153533 | 67 | 358 | 2.6 | 3.5 | 0.00 | 0.00 | 0.00 | 78 | 1018.2 |
| 20260906153029 | 66 | 25 | 7.8 | 8.7 | 0.00 | 0.00 | 0.00 | 80 | 1018.2 |
| 20260906152528 | 66 | 38 | 8.7 | 11.3 | 0.00 | 0.00 | 0.00 | 81 | 1018.2 |
| 20260906152027 | 68 | 27 | 5.2 | 7.0 | 0.00 | 0.00 | 0.00 | 78 | 1018.4 |
| 20260906151523 | 66 | 18 | 6.1 | 7.0 | 0.00 | 0.00 | 0.00 | 81 | 1018.5 |
| 20260906151024 | 67 | 19 | 6.1 | 12.2 | 0.00 | 0.00 | 0.00 | 79 | 1018.2 |
| 20260906150519 | 68 | 43 | 1.7 | 2.6 | 0.00 | 0.00 | 0.00 | 79 | 1018.4 |
| 20260906150014 | 66 | 25 | 7.0 | 8.7 | 0.00 | 0.00 | 0.00 | 79 | 1018.3 |
| 20260906145513 | 66 | 354 | 6.1 | 7.8 | 0.00 | 0.00 | 0.00 | 82 | 1018.4 |
| 20260906145008 | 66 | 18 | 8.7 | 9.6 | 0.00 | 0.00 | 0.00 | 81 | 1018.2 |
| 20260906144502 | 66 | 8 | 3.5 | 6.1 | 0.00 | 0.00 | 0.00 | 82 | 1018.2 |
| 20260906143957 | 66 | 20 | 8.7 | 9.6 | 0.00 | 0.00 | 0.00 | 82 | 1018.4 |
| 20260906143453 | 67 | 168 | 1.7 | 1.7 | 0.00 | 0.00 | 0.00 | 82 | 1018.4 |
| 20260906142949 | 67 | 47 | 4.3 | 6.1 | 0.00 | 0.00 | 0.00 | 82 | 1018.4 |
| 20260906142442 | 67 | 54 | 4.3 | 6.1 | 0.00 | 0.00 | 0.00 | 80 | 1018.1 |
| 20260906141938 | 66 | 26 | 3.5 | 6.1 | 0.00 | 0.00 | 0.00 | 82 | 1018.3 |
| 20260906141437 | 66 | 11 | 6.1 | 7.8 | 0.00 | 0.00 | 0.00 | 84 | 1018.2 |
| 20260906140938 | 66 | 14 | 7.8 | 9.6 | 0.00 | 0.00 | 0.00 | 83 | 1018.0 |
| 20260906140432 | 66 | 5 | 8.7 | 9.6 | 0.00 | 0.00 | 0.00 | 83 | 1017.9 |
| 20260906135930 | 67 | 32 | 4.3 | 5.2 | 0.00 | 0.00 | 0.00 | 84 | 1017.8 |
| 20260906135429 | 67 | 51 | 7.0 | 7.8 | 0.00 | 0.00 | 0.00 | 83 | 1017.7 |
| 20260906134925 | 66 | 19 | 8.7 | 9.6 | 0.00 | 0.00 | 0.00 | 83 | 1017.8 |
| 20260906134420 | 66 | 34 | 4.3 | 5.2 | 0.00 | 0.00 | 0.00 | 84 | 1017.6 |
| 20260906133915 | 67 | 16 | 5.2 | 7.0 | 0.00 | 0.00 | 0.00 | 81 | 1017.6 |
| 20260906133411 | 68 | 34 | 3.5 | 5.2 | 0.00 | 0.00 | 0.00 | 78 | 1017.7 |
| 20260906132906 | 68 | 347 | 0.9 | 1.7 | 0.00 | 0.00 | 0.00 | 81 | 1017.7 |
| 20260906132401 | 66 | 41 | 4.3 | 6.1 | 0.00 | 0.00 | 0.00 | 81 | 1017.6 |
| 20260906131857 | 66 | 34 | 2.6 | 3.5 | 0.00 | 0.00 | 0.00 | 81 | 1017.6 |
| 20260906131352 | 66 | 5 | 7.8 | 13.0 | 0.00 | 0.00 | 0.00 | 81 | 1017.4 |
| 20260906130848 | 67 | 18 | 2.6 | 3.5 | 0.00 | 0.00 | 0.00 | 81 | 1017.6 |
| 20260906130348 | 67 | 19 | 2.6 | 3.5 | 0.00 | 0.00 | 0.00 | 84 | 1017.6 |
| 20260906125847 | 66 | 16 | 6.1 | 7.0 | 0.00 | 0.00 | 0.00 | 84 | 1017.6 |
| 20260906125344 | 66 | 351 | 7.8 | 8.7 | 0.00 | 0.00 | 0.00 | 84 | 1017.6 |
| 20260906124839 | 66 | 356 | 7.0 | 7.8 | 0.00 | 0.00 | 0.00 | 86 | 1017.3 |
| 20260906124335 | 66 | 21 | 3.5 | 6.1 | 0.00 | 0.00 | 0.00 | 86 | 1017.3 |
| 20260906123834 | 66 | 23 | 7.8 | 8.7 | 0.00 | 0.00 | 0.00 | 87 | 1017.2 |
| 20260906123329 | 66 | 357 | 3.5 | 5.2 | 0.00 | 0.00 | 0.00 | 87 | 1017.4 |
| 20260906122828 | 66 | 23 | 5.2 | 6.1 | 0.00 | 0.00 | 0.00 | 86 | 1017.4 |
| 20260906122323 | 66 | 16 | 3.5 | 6.1 | 0.00 | 0.00 | 0.00 | 86 | 1017.4 |
| 20260906121821 | 66 | 345 | 1.7 | 2.6 | 0.00 | 0.00 | 0.00 | 86 | 1017.2 |
| 20260906121316 | 66 | 12 | 5.2 | 7.0 | 0.00 | 0.00 | 0.00 | 86 | 1017.1 |
| 20260906120812 | 66 | 22 | 8.7 | 9.6 | 0.00 | 0.00 | 0.00 | 86 | 1017.1 |
| 20260906120309 | 65 | 343 | 5.2 | 7.0 | 0.00 | 0.00 | 0.00 | 87 | 1017.1 |
| 20260906115805 | 66 | 24 | 4.3 | 6.1 | 0.00 | 0.00 | 0.00 | 88 | 1017.0 |
| 20260906115300 | 66 | 13 | 4.3 | 5.2 | 0.00 | 0.00 | 0.00 | 87 | 1016.9 |
| 20260906114759 | 66 | 40 | 3.5 | 5.2 | 0.00 | 0.00 | 0.00 | 88 | 1016.6 |
| 20260906114254 | 66 | 9 | 3.5 | 3.5 | 0.00 | 0.00 | 0.00 | 89 | 1016.7 |
| 20260906113749 | 66 | 18 | 5.2 | 6.1 | 0.00 | 0.00 | 0.00 | 88 | 1016.7 |
| 20260906113248 | 66 | 27 | 8.7 | 12.2 | 0.00 | 0.00 | 0.00 | 88 | 1016.5 |
| 20260906112749 | 66 | 9 | 5.2 | 6.1 | 0.00 | 0.00 | 0.00 | 89 | 1016.4 |
| 20260906112245 | 66 | 21 | 6.1 | 7.0 | 0.00 | 0.00 | 0.00 | 89 | 1016.4 |
| 20260906111744 | 66 | 14 | 9.6 | 12.2 | 0.00 | 0.00 | 0.00 | 89 | 1016.2 |
| 20260906111244 | 67 | 2 | 8.7 | 8.7 | 0.00 | 0.00 | 0.00 | 89 | 1016.3 |
| 20260906110739 | 67 | 355 | 5.2 | 5.2 | 0.00 | 0.00 | 0.00 | 88 | 1016.4 |
| 20260906110235 | 67 | 334 | 4.3 | 5.2 | 0.00 | 0.00 | 0.00 | 88 | 1016.3 |
| 20260906105734 | 66 | 355 | 6.1 | 7.0 | 0.00 | 0.00 | 0.00 | 89 | 1016.2 |
| 20260906105231 | 66 | 338 | 1.7 | 2.6 | 0.00 | 0.00 | 0.00 | 90 | 1016.1 |
| 20260906104731 | 66 | 4 | 7.0 | 7.8 | 0.00 | 0.00 | 0.00 | 91 | 1016.1 |
| 20260906104230 | 66 | 349 | 3.5 | 3.5 | 0.00 | 0.00 | 0.00 | 92 | 1016.0 |
| 20260906103727 | 66 | 0 | 3.5 | 5.2 | 0.00 | 0.00 | 0.00 | 92 | 1016.0 |
| 20260906103222 | 66 | 341 | 3.5 | 5.2 | 0.00 | 0.00 | 0.00 | 92 | 1015.9 |
| 20260906102718 | 66 | 352 | 3.5 | 5.2 | 0.00 | 0.00 | 0.00 | 92 | 1015.8 |
| 20260906102217 | 66 | 353 | 4.3 | 6.1 | 0.00 | 0.00 | 0.00 | 92 | 1015.8 |
| 20260906101712 | 66 | 351 | 5.2 | 6.1 | 0.00 | 0.00 | 0.00 | 92 | 1015.6 |
| 20260906101207 | 66 | 2 | 1.7 | 3.5 | 0.00 | 0.00 | 0.00 | 91 | 1015.7 |
| 20260906100703 | 66 | 1 | 4.3 | 5.2 | 0.00 | 0.00 | 0.00 | 92 | 1015.7 |
| 20260906100203 | 66 | 335 | 2.6 | 2.6 | 0.00 | 0.00 | 0.00 | 92 | 1015.6 |
| 20260906095657 | 66 | 355 | 2.6 | 3.5 | 0.00 | 0.00 | 0.00 | 91 | 1015.5 |
| 20260906095153 | 66 | 17 | 3.5 | 3.5 | 0.00 | 0.00 | 0.00 | 92 | 1015.5 |
| 20260906094652 | 66 | 353 | 2.6 | 2.6 | 0.00 | 0.00 | 0.00 | 92 | 1015.3 |
| 20260906094147 | 65 | 329 | 0.9 | 0.9 | 0.00 | 0.00 | 0.00 | 93 | 1015.3 |
| 20260906093644 | 65 | 339 | 1.7 | 1.7 | 0.00 | 0.00 | 0.00 | 93 | 1015.6 |
| 20260906093143 | 65 | 320 | 0.9 | 0.9 | 0.00 | 0.00 | 0.00 | 93 | 1015.4 |
| 20260906092638 | 65 | 323 | 1.7 | 1.7 | 0.00 | 0.00 | 0.00 | 93 | 1015.4 |
| 20260906092138 | 65 | 324 | 0.9 | 0.9 | 0.00 | 0.00 | 0.00 | 94 | 1015.0 |
| 20260906091635 | 65 | 323 | 1.7 | 1.7 | 0.00 | 0.00 | 0.00 | 96 | 1015.1 |
| 20260906091131 | 64 | 334 | 1.7 | 2.6 | 0.00 | 0.00 | 0.00 | 97 | 1015.3 |
| 20260906090626 | 62 | 289 | 0.0 | 0.0 | 0.00 | 0.00 | 0.00 | 97 | 1015.2 |
| 20260906090120 | 62 | 294 | 0.0 | 0.0 | 0.00 | 0.00 | 0.00 | 97 | 1015.1 |
| 20260906085619 | 62 | 297 | 0.0 | 0.0 | 0.00 | 0.00 | 0.00 | 97 | 1014.8 |
| 20260906085114 | 62 | 296 | 0.0 | 0.0 | 0.00 | 0.00 | 0.00 | 97 | 1014.8 |
| 20260906084609 | 62 | 296 | 0.0 | 0.0 | 0.00 | 0.00 | 0.00 | 96 | 1014.9 |
| 20260906084108 | 62 | 304 | 0.0 | 0.0 | 0.00 | 0.00 | 0.00 | 96 | 1014.8 |
| 20260906083603 | 62 | 310 | 0.0 | 0.0 | 0.00 | 0.00 | 0.00 | 96 | 1014.8 |
| 20260906083102 | 62 | 311 | 0.0 | 0.0 | 0.00 | 0.00 | 0.00 | 97 | 1014.7 |
| 20260906082553 | 62 | 307 | 0.0 | 0.0 | 0.00 | 0.00 | 0.00 | 96 | 1014.7 |
| 20260906082048 | 63 | 308 | 0.0 | 0.0 | 0.00 | 0.00 | 0.00 | 96 | 1014.5 |
| 20260906081544 | 63 | 306 | 0.0 | 0.0 | 0.00 | 0.00 | 0.00 | 96 | 1014.7 |
| 20260906081039 | 62 | 293 | 0.0 | 0.0 | 0.00 | 0.00 | 0.00 | 96 | 1014.6 |
| 20260906080536 | 63 | 292 | 0.0 | 0.0 | 0.00 | 0.00 | 0.00 | 96 | 1014.6 |
| 20260906080031 | 63 | 292 | 0.0 | 0.0 | 0.00 | 0.00 | 0.00 | 96 | 1014.6 |
| 20260906075526 | 63 | 303 | 0.0 | 0.0 | 0.00 | 0.00 | 0.00 | 96 | 1014.9 |
| 20260906075020 | 62 | 288 | 0.0 | 0.0 | 0.00 | 0.00 | 0.00 | 97 | 1014.5 |
| 20260906074515 | 63 | 288 | 0.0 | 0.0 | 0.00 | 0.00 | 0.00 | 96 | 1014.5 |
| 20260906074014 | 62 | 288 | 0.0 | 0.0 | 0.00 | 0.00 | 0.00 | 96 | 1014.5 |
| 20260906073509 | 62 | 288 | 0.0 | 0.0 | 0.00 | 0.00 | 0.00 | 96 | 1014.5 |
| 20260906073005 | 62 | 288 | 0.0 | 0.0 | 0.00 | 0.00 | 0.00 | 96 | 1014.5 |
| 20260906072500 | 62 | 288 | 0.0 | 0.0 | 0.00 | 0.00 | 0.00 | 96 | 1014.7 |
| 20260906071955 | 62 | 288 | 0.0 | 0.0 | 0.00 | 0.00 | 0.00 | 96 | 1014.7 |
| 20260906071452 | 62 | 288 | 0.0 | 0.0 | 0.00 | 0.00 | 0.00 | 96 | 1014.4 |
| 20260906070947 | 63 | 288 | 0.0 | 0.0 | 0.00 | 0.00 | 0.00 | 95 | 1014.6 |
| 20260906070442 | 63 | 286 | 0.0 | 0.0 | 0.00 | 0.00 | 0.00 | 95 | 1014.7 |
| 20260906065938 | 63 | 286 | 0.0 | 0.0 | 0.00 | 0.00 | 0.00 | 94 | 1014.5 |
| 20260906065432 | 64 | 286 | 0.0 | 0.0 | 0.00 | 0.00 | 0.00 | 94 | 1014.7 |
| 20260906064928 | 64 | 286 | 0.0 | 0.0 | 0.00 | 0.00 | 0.00 | 93 | 1014.5 |
| 20260906064424 | 64 | 286 | 0.0 | 0.0 | 0.00 | 0.00 | 0.00 | 93 | 1014.6 |
| 20260906063924 | 64 | 286 | 0.0 | 0.0 | 0.00 | 0.00 | 0.00 | 93 | 1014.6 |
| 20260906063419 | 64 | 286 | 0.0 | 0.0 | 0.00 | 0.00 | 0.00 | 93 | 1014.7 |
| 20260906062915 | 64 | 285 | 0.0 | 0.9 | 0.00 | 0.00 | 0.00 | 93 | 1014.7 |
| 20260906062414 | 64 | 303 | 0.0 | 0.0 | 0.00 | 0.00 | 0.00 | 93 | 1014.6 |
| 20260906061909 | 64 | 303 | 0.0 | 0.0 | 0.00 | 0.00 | 0.00 | 93 | 1014.6 |
| 20260906061406 | 64 | 303 | 0.0 | 0.0 | 0.00 | 0.00 | 0.00 | 92 | 1014.6 |
| 20260906060859 | 64 | 303 | 0.0 | 0.0 | 0.00 | 0.00 | 0.00 | 92 | 1014.5 |
| 20260906060357 | 64 | 303 | 0.0 | 0.0 | 0.00 | 0.00 | 0.00 | 91 | 1014.5 |
| 20260906055853 | 65 | 303 | 0.0 | 0.0 | 0.00 | 0.00 | 0.00 | 90 | 1014.6 |
| 20260906055349 | 65 | 304 | 0.0 | 0.0 | 0.00 | 0.00 | 0.00 | 88 | 1014.7 |
| 20260906054843 | 65 | 303 | 0.0 | 0.0 | 0.00 | 0.00 | 0.00 | 88 | 1014.6 |
| 20260906054338 | 66 | 294 | 0.0 | 0.0 | 0.00 | 0.00 | 0.00 | 87 | 1014.6 |
| 20260906053835 | 66 | 310 | 0.0 | 0.0 | 0.00 | 0.00 | 0.00 | 85 | 1014.7 |
| 20260906053330 | 66 | 302 | 0.0 | 0.0 | 0.00 | 0.00 | 0.00 | 85 | 1014.4 |
| 20260906052826 | 66 | 306 | 0.0 | 0.0 | 0.00 | 0.00 | 0.00 | 84 | 1014.6 |
| 20260906052322 | 67 | 300 | 0.0 | 0.0 | 0.00 | 0.00 | 0.00 | 84 | 1014.6 |
| 20260906051819 | 67 | 304 | 0.0 | 0.0 | 0.00 | 0.00 | 0.00 | 83 | 1014.6 |
| 20260906051318 | 68 | 319 | 0.9 | 0.9 | 0.00 | 0.00 | 0.00 | 83 | 1014.8 |
| 20260906050814 | 68 | 307 | 0.0 | 0.0 | 0.00 | 0.00 | 0.00 | 83 | 1014.7 |
| 20260906050309 | 68 | 327 | 0.9 | 0.9 | 0.00 | 0.00 | 0.00 | 82 | 1014.6 |
| 20260906045808 | 68 | 337 | 1.7 | 1.7 | 0.00 | 0.00 | 0.00 | 82 | 1014.5 |
| 20260906045305 | 68 | 323 | 0.9 | 0.9 | 0.00 | 0.00 | 0.00 | 83 | 1014.5 |
| 20260906044759 | 68 | 349 | 1.7 | 2.6 | 0.00 | 0.00 | 0.00 | 83 | 1014.5 |
| 20260906044253 | 68 | 337 | 0.9 | 0.9 | 0.00 | 0.00 | 0.00 | 83 | 1014.5 |
| 20260906043749 | 68 | 359 | 1.7 | 2.6 | 0.00 | 0.00 | 0.00 | 82 | 1014.5 |
| 20260906043245 | 68 | 338 | 0.9 | 1.7 | 0.00 | 0.00 | 0.00 | 83 | 1014.5 |
| 20260906042744 | 69 | 354 | 2.6 | 3.5 | 0.00 | 0.00 | 0.00 | 82 | 1014.4 |
| 20260906042244 | 69 | 355 | 2.6 | 2.6 | 0.00 | 0.00 | 0.00 | 83 | 1014.3 |
| 20260906041739 | 69 | 347 | 3.5 | 3.5 | 0.00 | 0.00 | 0.00 | 83 | 1014.4 |
| 20260906041234 | 68 | 358 | 3.5 | 3.5 | 0.00 | 0.00 | 0.00 | 85 | 1014.3 |
| 20260906040730 | 68 | 343 | 2.6 | 2.6 | 0.00 | 0.00 | 0.00 | 86 | 1014.3 |
| 20260906040225 | 68 | 349 | 3.5 | 3.5 | 0.00 | 0.00 | 0.00 | 87 | 1014.2 |
| 20260906035720 | 68 | 338 | 1.7 | 2.6 | 0.00 | 0.00 | 0.00 | 87 | 1014.4 |
| 20260906035216 | 68 | 350 | 2.6 | 3.5 | 0.00 | 0.00 | 0.00 | 87 | 1014.4 |
| 20260906034716 | 68 | 342 | 2.6 | 2.6 | 0.00 | 0.00 | 0.00 | 87 | 1014.4 |
| 20260906034210 | 68 | 356 | 2.6 | 2.6 | 0.00 | 0.00 | 0.00 | 88 | 1014.3 |
| 20260906033706 | 67 | 345 | 1.7 | 1.7 | 0.00 | 0.00 | 0.00 | 88 | 1014.3 |
| 20260906033201 | 67 | 321 | 0.9 | 0.9 | 0.00 | 0.00 | 0.00 | 91 | 1014.4 |
| 20260906032658 | 66 | 317 | 0.0 | 0.0 | 0.00 | 0.00 | 0.00 | 93 | 1014.5 |
| 20260906032158 | 66 | 305 | 0.0 | 0.0 | 0.00 | 0.00 | 0.00 | 94 | 1014.4 |
| 20260906031653 | 65 | 305 | 0.0 | 0.0 | 0.00 | 0.00 | 0.00 | 95 | 1014.4 |
| 20260906031148 | 65 | 301 | 0.0 | 0.0 | 0.00 | 0.00 | 0.00 | 95 | 1014.5 |
| 20260906030648 | 64 | 298 | 0.0 | 0.0 | 0.00 | 0.00 | 0.00 | 95 | 1014.2 |
| 20260906030143 | 64 | 303 | 0.0 | 0.0 | 0.00 | 0.00 | 0.00 | 95 | 1014.1 |
| 20260906025642 | 64 | 303 | 0.0 | 0.0 | 0.00 | 0.00 | 0.00 | 96 | 1014.1 |
| 20260906025142 | 64 | 300 | 0.0 | 0.0 | 0.00 | 0.00 | 0.00 | 96 | 1014.1 |
| 20260906024636 | 63 | 290 | 0.0 | 0.0 | 0.00 | 0.00 | 0.00 | 96 | 1014.1 |
| 20260906024130 | 64 | 290 | 0.0 | 0.0 | 0.00 | 0.00 | 0.00 | 96 | 1014.3 |
| 20260906023627 | 64 | 290 | 0.0 | 0.0 | 0.00 | 0.00 | 0.00 | 96 | 1014.2 |
| 20260906023126 | 64 | 290 | 0.0 | 0.0 | 0.00 | 0.00 | 0.00 | 95 | 1014.1 |
| 20260906022622 | 64 | 290 | 0.0 | 0.0 | 0.00 | 0.00 | 0.00 | 95 | 1014.0 |
| 20260906022117 | 64 | 290 | 0.0 | 0.0 | 0.00 | 0.00 | 0.00 | 95 | 1014.0 |
| 20260906021613 | 64 | 290 | 0.0 | 0.0 | 0.00 | 0.00 | 0.00 | 95 | 1014.0 |
| 20260906021111 | 64 | 289 | 0.0 | 0.0 | 0.00 | 0.00 | 0.00 | 95 | 1013.9 |
| 20260906020611 | 64 | 289 | 0.0 | 0.0 | 0.00 | 0.00 | 0.00 | 94 | 1013.9 |
| 20260906020106 | 64 | 288 | 0.0 | 0.0 | 0.00 | 0.00 | 0.00 | 94 | 1014.1 |
| 20260906015605 | 64 | 294 | 0.0 | 0.0 | 0.00 | 0.00 | 0.00 | 94 | 1014.2 |
| 20260906015105 | 64 | 290 | 0.0 | 0.0 | 0.00 | 0.00 | 0.00 | 94 | 1014.0 |
| 20260906014559 | 64 | 295 | 0.0 | 0.0 | 0.00 | 0.00 | 0.00 | 94 | 1014.0 |
| 20260906014056 | 64 | 295 | 0.0 | 0.0 | 0.00 | 0.00 | 0.00 | 93 | 1013.9 |
| 20260906013551 | 65 | 299 | 0.0 | 0.0 | 0.00 | 0.00 | 0.00 | 93 | 1013.9 |
| 20260906013046 | 65 | 297 | 0.0 | 0.0 | 0.00 | 0.00 | 0.00 | 93 | 1013.8 |
| 20260906012541 | 65 | 297 | 0.0 | 0.0 | 0.00 | 0.00 | 0.00 | 92 | 1013.8 |
| 20260906012040 | 65 | 297 | 0.0 | 0.0 | 0.00 | 0.00 | 0.00 | 92 | 1013.9 |
| 20260906011537 | 65 | 297 | 0.0 | 0.0 | 0.00 | 0.00 | 0.00 | 92 | 1013.8 |
| 20260906011036 | 65 | 297 | 0.0 | 0.0 | 0.00 | 0.00 | 0.00 | 91 | 1013.9 |
| 20260906010532 | 65 | 297 | 0.0 | 0.0 | 0.00 | 0.00 | 0.00 | 91 | 1013.8 |
| 20260906010028 | 65 | 297 | 0.0 | 0.0 | 0.00 | 0.00 | 0.00 | 90 | 1013.7 |
| 20260906005527 | 66 | 297 | 0.0 | 0.0 | 0.00 | 0.00 | 0.00 | 90 | 1013.8 |
| 20260906005026 | 66 | 298 | 0.0 | 0.0 | 0.00 | 0.00 | 0.00 | 90 | 1013.8 |
| 20260906004520 | 66 | 299 | 0.0 | 0.0 | 0.00 | 0.00 | 0.00 | 89 | 1013.7 |
| 20260906004015 | 67 | 309 | 0.0 | 0.0 | 0.00 | 0.00 | 0.00 | 88 | 1013.5 |
| 20260906003511 | 67 | 317 | 0.9 | 0.9 | 0.00 | 0.00 | 0.00 | 86 | 1013.6 |
| 20260906003007 | 67 | 317 | 1.7 | 1.7 | 0.00 | 0.00 | 0.00 | 86 | 1013.7 |
| 20260906002507 | 67 | 302 | 0.0 | 0.0 | 0.00 | 0.00 | 0.00 | 86 | 1013.7 |
| 20260906002001 | 67 | 291 | 0.0 | 0.0 | 0.00 | 0.00 | 0.00 | 87 | 1013.7 |
| 20260906001457 | 67 | 291 | 0.0 | 0.0 | 0.00 | 0.00 | 0.00 | 86 | 1013.7 |
| 20260906000952 | 67 | 291 | 0.0 | 0.0 | 0.00 | 0.00 | 0.00 | 85 | 1013.9 |
| 20260906000448 | 68 | 291 | 0.0 | 0.0 | 0.00 | 0.00 | 0.00 | 84 | 1013.7 |
| 20260905235948 | 68 | 291 | 0.0 | 0.0 | 0.00 | 0.00 | 0.00 | 84 | 1013.7 |
| 20260905235442 | 68 | 291 | 0.0 | 0.0 | 0.00 | 0.00 | 0.00 | 84 | 1013.7 |
| 20260905234937 | 68 | 293 | 0.0 | 0.0 | 0.00 | 0.00 | 0.00 | 83 | 1013.8 |
| 20260905234433 | 68 | 291 | 0.0 | 0.0 | 0.00 | 0.00 | 0.00 | 83 | 1013.8 |
| 20260905233932 | 68 | 291 | 0.0 | 0.0 | 0.00 | 0.00 | 0.00 | 83 | 1013.9 |
| 20260905233428 | 68 | 291 | 0.0 | 0.0 | 0.00 | 0.00 | 0.00 | 82 | 1013.7 |
| 20260905232926 | 69 | 296 | 0.0 | 0.0 | 0.00 | 0.00 | 0.00 | 82 | 1013.8 |
| 20260905232423 | 69 | 298 | 0.0 | 0.0 | 0.00 | 0.00 | 0.00 | 81 | 1013.8 |
| 20260905231918 | 69 | 325 | 1.7 | 1.7 | 0.00 | 0.00 | 0.00 | 80 | 1013.8 |
| 20260905231414 | 69 | 298 | 0.9 | 0.9 | 0.00 | 0.00 | 0.00 | 80 | 1013.9 |
| 20260905230910 | 69 | 313 | 0.9 | 1.7 | 0.00 | 0.00 | 0.00 | 79 | 1013.7 |
| 20260905230409 | 70 | 284 | 0.9 | 0.9 | 0.00 | 0.00 | 0.00 | 79 | 1013.8 |
| 20260905225907 | 70 | 303 | 0.9 | 0.9 | 0.00 | 0.00 | 0.00 | 78 | 1013.9 |
| 20260905225402 | 70 | 323 | 0.9 | 0.9 | 0.00 | 0.00 | 0.00 | 80 | 1013.8 |
| 20260905224857 | 69 | 313 | 0.9 | 1.7 | 0.00 | 0.00 | 0.00 | 81 | 1013.8 |
| 20260905224353 | 70 | 293 | 0.0 | 0.9 | 0.00 | 0.00 | 0.00 | 80 | 1013.8 |
| 20260905223848 | 70 | 303 | 0.9 | 1.7 | 0.00 | 0.00 | 0.00 | 80 | 1014.0 |
| 20260905223346 | 69 | 302 | 0.9 | 1.7 | 0.00 | 0.00 | 0.00 | 81 | 1013.9 |
| 20260905222845 | 69 | 328 | 1.7 | 1.7 | 0.00 | 0.00 | 0.00 | 81 | 1013.8 |
| 20260905222344 | 69 | 287 | 3.5 | 5.2 | 0.00 | 0.00 | 0.00 | 80 | 1014.0 |
| 20260905221840 | 69 | 0 | 5.2 | 6.1 | 0.00 | 0.00 | 0.00 | 80 | 1013.7 |
| 20260905221337 | 69 | 14 | 5.2 | 5.2 | 0.00 | 0.00 | 0.00 | 80 | 1013.8 |
| 20260905220833 | 70 | 357 | 3.5 | 3.5 | 0.00 | 0.00 | 0.00 | 79 | 1013.8 |
| 20260905220329 | 70 | 323 | 2.6 | 2.6 | 0.00 | 0.00 | 0.00 | 79 | 1013.7 |
| 20260905215828 | 70 | 334 | 2.6 | 2.6 | 0.00 | 0.00 | 0.00 | 80 | 1013.6 |
| 20260905215323 | 69 | 353 | 3.5 | 5.2 | 0.00 | 0.00 | 0.00 | 81 | 1013.4 |
| 20260905214820 | 69 | 342 | 2.6 | 2.6 | 0.00 | 0.00 | 0.00 | 80 | 1013.4 |
| 20260905214315 | 70 | 330 | 4.3 | 5.2 | 0.00 | 0.00 | 0.00 | 79 | 1013.6 |
| 20260905213810 | 70 | 359 | 3.5 | 6.1 | 0.00 | 0.00 | 0.00 | 79 | 1013.6 |